Location: Mount Graham
(32.7016°N, 109.8912°W)
Time: 18:46:27
(UTC-07:00)

Cosmos 1340 - Visible Passes

Search period start: 26 June 2017 00:00
Search period end: 06 July 2017 00:00
Orbit: 505 x 510 km, 81.2° (Epoch: 26 June)

Date Brightness Start Highest point End Pass type
(mag) Time Alt. Az. Time Alt. Az. Time Alt. Az.
26 Jun 5.2 02:16:41 10° NNW 02:17:27 15° NNW 02:17:27 15° NNW visible
27 Jun 5.3 01:58:58 10° NNW 01:59:47 16° NNW 01:59:47 16° NNW visible
28 Jun 5.4 01:41:19 10° NNW 01:42:08 16° NNW 01:42:08 16° NNW visible
29 Jun 5.5 01:23:43 10° N 01:24:30 16° N 01:24:30 16° N visible
30 Jun 5.6 01:06:10 10° N 01:06:54 15° N 01:06:54 15° N visible
01 Jul 5.7 00:48:41 10° N 00:49:18 14° N 00:49:18 14° N visible
02 Jul 5.8 00:31:15 10° N 00:31:44 13° NNE 00:31:44 13° NNE visible
03 Jul 5.9 00:13:53 10° NNE 00:14:10 12° NNE 00:14:10 12° NNE visible
03 Jul 5.9 23:56:37 10° NNE 23:56:37 10° NNE 23:56:37 10° NNE visible
